This demonstration page uses our WeatherBlox Daily Observations layout. Learn more.

Left ArrowRight Arrow

Hourly Observations for September 4, 2015

Temp ( °F °C ) Dew Point ( °F °C ) Humidity (%) Winds ( mph kmh ) Pressure ( in mb ) Visibility ( mi km ) Precip ( " mm )
12:59 am 00:59 Partly Cloudy with Mist and Fog 76 24.4 72 22.2 88 88 Calm 29.90 1013 6 10 0.00 0.00
1:59 am 01:59 Partly Cloudy with Mist and Fog 75 23.9 72 22.2 90 90 Calm 29.90 1012 5 8 0.00 0.00
2:59 am 02:59 Mostly Cloudy with Mist and Fog 75 23.9 72 22.2 90 90 Calm 29.89 1012 5 8 0.00 0.00
3:59 am 03:59 Mostly Cloudy with Mist and Fog 74 23.3 72 22.2 94 94 Calm 29.91 1013 5 8 0.00 0.00
4:59 am 04:59 Partly Cloudy with Mist and Fog 74 23.3 71 21.7 91 91 WSW 3 6 29.91 1013 4 6 0.00 0.00
5:59 am 05:59 Partly Cloudy with Mist and Fog 73 22.8 71 21.7 94 94 Calm 29.91 1013 3 5 0.00 0.00
6:59 am 06:59 Partly Cloudy with Mist and Fog 74 23.3 71 21.7 91 91 Calm 29.93 1014 4 6 0.00 0.00
7:59 am 07:59 Partly Cloudy with Mist and Fog 80 26.7 75 23.9 85 85 N 6 9 29.95 1014 5 8 0.00 0.00
8:59 am 08:59 Hazy 83 28.3 75 23.9 77 77 N 8 13 29.97 1015 5 8 0.00 0.00
9:59 am 09:59 Hazy 85 29.4 76 24.4 75 75 NNE 7 11 29.98 1015 5 8 0.00 0.00
10:59 am 10:59 Hazy 86 30 73 22.8 65 65 ENE 9 15 30.00 1016 5 8 0.00 0.00
11:59 am 11:59 Hazy 87 30.6 70 21.1 57 57 ENE 12 19 30.01 1016 5 8 0.00 0.00
12:59 pm 12:59 Hazy 86 30 72 22.2 63 63 E 13 20 30.01 1016 5 8 0.00 0.00
1:59 pm 13:59 Hazy 87 30.6 70 21.1 57 57 E 13 20 30.01 1016 6 10 0.00 0.00
2:59 pm 14:59 Hazy 85 29.4 70 21.1 61 61 ENE 15 24 29.99 1016 6 10 0.00 0.00
3:59 pm 15:59 Hazy 84 28.9 72 22.2 67 67 ENE 15 24 30.01 1016 5 8 0.00 0.00
4:59 pm 16:59 Hazy 83 28.3 73 22.8 72 72 ENE 15 24 30.01 1016 6 10 0.00 0.00
5:59 pm 17:59 Hazy 82 27.8 72 22.2 72 72 ENE 12 19 30.03 1017 6 10 0.00 0.00
6:59 pm 18:59 Hazy 81 27.2 70 21.1 69 69 ENE 12 19 30.02 1017 6 10 0.00 0.00
7:59 pm 19:59 Partly Cloudy 80 26.7 70 21.1 71 71 E 13 20 30.03 1017 7 11 0.00 0.00
8:59 pm 20:59 Partly Cloudy 79 26.1 70 21.1 74 74 E 8 13 30.06 1018 7 11 0.00 0.00
9:59 pm 21:59 Partly Cloudy 80 26.7 70 21.1 71 71 ENE 9 15 30.07 1018 7 11 0.00 0.00
10:59 pm 22:59 Partly Cloudy 80 26.7 70 21.1 71 71 ENE 12 19 30.08 1019 8 13 0.00 0.00
11:59 pm 23:59 Mostly Cloudy 80 26.7 72 22.2 76 76 NE 12 19 30.09 1019 7 11 0.00 0.00

Powered by AerisWeather